Tracking 25995 objects as of 19-Aug-2022
HD Live streaming from Space Station
objects crossing your sky now

THOR ABLESTAR DEB

Track THOR ABLESTAR DEB now!
10-day predictions


NORAD ID: 48827
Int'l Code: 1961-015NF
Perigee: 882.0 km
Apogee: 1,431.4 km
Inclination: 68.2 °
Period: 108.3 minutes
Semi major axis: 7527 km
RCS: Unknown
Launch date: June 29, 1961
Source: United States (US)
Launch site: AIR FORCE EASTERN TEST RANGE (AFETR)

Note: This is SATELLITE DEBRIS
aabbcc
Your satellite tracking list
Your tracking list is empty




NASA's NSSDC Master Catalog

Two Line Element Set (TLE):
1 48827U 61015NF  22231.27466576  .00000420  00000-0  71674-3 0  9999
2 48827  68.1565 237.8507 0364899 263.8719  92.0658 13.29254664423921
Source of the keplerian elements: AFSPC